Location: Costa Valle Imagna
(45.8000°N, 9.5000°E)
Time: 21:41:06
(UTC+00:00)

STARLINK-1089 - Pass Details

Date: 17 February 2020
Orbit: 379 x 380 km, 53.0° (Epoch: 29 March)

Event Time Altitude Azimuth Distance (km) Brightness Sun altitude
Exits shadow 03:56:28 11° 136° (SE) 1,354 6.0 -26.0°
Drops below altitude 10° 03:57:39 10° 114° (ESE) 1,402 6.4 -25.8°
Enters shadow 04:55:29 -68° 237° (WSW) 12,243 10.4 -15.7°
Maximum altitude 05:32:08 82° 147° (SSE) 392 2.9 -9.4°
